Voltar ao catálogo

STARLINK-36728

AtivoComunicaçõesVLEO
NORAD 67927·PAYLOAD·🇺🇸 United States

Lançado Feb 22, 2026 de Vandenberg Space Force Base

Loading…

Próximas Passagens (próximas 24 horas)

TLE

AtualizadoSource: CelesTrak SupGP

Época: Sep 15, 2026, 04:05 UTC

1 67927C 26036Z   26258.17062500 -.00031885  00000+0 -11552-2 0  2582
2 67927  43.0024 255.0684 0001312 265.1654  33.7451 15.27585988    14

Acompanhe STARLINK-36728 em tempo real com AllMySat

Download on the App Store